Location: *
(42.0175°N, 9.4056°E)
Time: 20:08:31
(UTC+00:00)

Mayak - Pass Details

Date: 25 August 2019
Orbit: 581 x 602 km, 97.6° (Epoch: 14 October)

Event Time Altitude Azimuth Distance (km) Brightness Sun altitude
Rises 21:28:48 0° 21° (NNE) 2,832 2.7 -31.1°
Reaches altitude 10° 21:31:07 10° 30° (NNE) 1,923 1.6 -31.3°
Enters shadow 21:31:13 11° 30° (NNE) 1,890 1.6 -31.3°
